Regional Weather Roundup
Issued by NWS

Home | Current Version | Previous Version | Graphics & Text | Print | Product List | Glossary On
Versions: 1 2 3 4 5 6 7 8 9 10 11 12 13 14 15 16 17 18 19 20 21 22 23 24 25 26 27 28 29 30 31 32 33 34 35 36 37 38 39 40 41 42 43 44 45 46 47 48 49 50
000
ASUS43 KMPX 241810
RWRMN
WEATHER ROUNDUP FOR MINNESOTA
NATIONAL WEATHER SERVICE TWIN CITIES/CHANHASSEN MN
100 PM CDT WED AUG 24 2016


NOTE: "FAIR" INDICATES FEW OR NO CLOUDS BELOW 12,000 FEET WITH NO
SIGNIFICANT WEATHER AND/OR OBSTRUCTIONS TO VISIBILITY. N/A MEANS
CURRENT SKY AND/OR WEATHER CONDITIONS ARE NOT AVAILABLE.

MNZ060>063-068>070-241900-
   Twin Cities Metro

CITY           SKY/WX    TMP DP  RH WIND       PRES   REMARKS
TWIN CITIES    PTSUNNY   80  63  55 NW9       29.91R
6HR MIN TEMP:  68; 6HR MAX TEMP:  80;

ST PAUL        CLOUDY    78  65  63 W9        29.91R
CRYSTAL        MOSUNNY   80  60  50 NW13      29.90R
BLAINE         PTSUNNY   81  64  57 NW10      29.90S
LAKEVILLE      MOSUNNY   77  66  69 W8        29.93R
EDEN PRAIRIE   CLOUDY    81  64  56 NW10      29.92R
6HR MIN TEMP:  69; 6HR MAX TEMP:  81;

LAKEVILLE      MOSUNNY   77  66  69 W8        29.93R
SOUTH ST PAUL  SUNNY     78  66  65 W8        29.91R
LAKE ELMO      PTSUNNY   77  70  78 W7        29.92R
$$
MNZ001>005-007-008-013>017-022>024-027-028-241900-
   Northwest Minnesota

CITY           SKY/WX    TMP DP  RH WIND       PRES   REMARKS
BEMIDJI        SUNNY     73  53  50 W17       29.88R
HALLOCK        MOSUNNY   73  54  49 W16G22    29.83S
ROSEAU         SUNNY     73  57  56 W15       29.82S
WARROAD        SUNNY     72  59  64 W17G23    29.82R
THIEF RVR FALL PTSUNNY   71  53  52 W18       29.87S
CROOKSTON      SUNNY     72  55  56 W18G25    29.88R
FOSSTON        MOSUNNY   70  54  56 W13G21    29.90R
DETROIT LAKES  SUNNY     70  54  56 NW14      29.94R
MOORHEAD       MOSUNNY   73  54  49 W15G22    29.93R
PARK RAPIDS    SUNNY     75  52  44 W18G24    29.91R
MAHNOMEN       FAIR      72  54  53 W17       29.90S
$$
MNZ006-009>011-018-025>026-241900-
   North Central Minnesota

CITY           SKY/WX    TMP DP  RH WIND       PRES   REMARKS
BAUDETTE       SUNNY     76  54  46 W14G21    29.80S
FLAG ISLAND    SUNNY     75  50  41 SW6       29.76F HAZE
INTL FALLS     SUNNY     77  57  50 W9G18     29.79S
6HR MIN TEMP:  69; 6HR MAX TEMP:  77;

WASKISH        SUNNY     73  59  60 SW13      29.84S
BIG FORK       SUNNY     77  52  41 W7        29.83F
LONGVILLE      SUNNY     75  54  46 SW12      29.88S
GRAND RAPIDS   SUNNY     77  52  41 W10G20    29.87S
CRANE LAKE     MOSUNNY   75  55  50 W6        29.81R
ORR            SUNNY     79  52  38 SW7       29.79F
COOK           SUNNY     79  54  41 W13G20    29.82S
WALKER         FAIR      73  53  49 W16       29.88S
$$
MNZ012-019>021-037-241900-
   Northeast Minnesota

CITY           SKY/WX    TMP DP  RH WIND       PRES   REMARKS
DULUTH         MOSUNNY   76  66  71 NW12G22   29.83F
6HR MIN TEMP:  66; 6HR MAX TEMP:  76; 6HR PCP:  0.01;

ELY            RAIN      68  63  83 W9G30     29.81F
HIBBING        SUNNY     78  55  44 W10       29.83F
EVELETH        SUNNY     78  54  43 W14G22    29.83F
DULUTH HARBOR  PTSUNNY   77  70  78 SW12      29.82S
TWO HARBORS    MOSUNNY   79  70  73 W3        29.79F
SILVER BAY     CLOUDY    77  68  73 SW5       29.79F
GRAND MARAIS     N/A     71  61  70 SW10      29.77F
G MARAIS ARPRT SUNNY     73  63  68 S7        29.82F
$$
MNZ029>031-032-039>041-046>048-054>057-064-241900-
   West Central Minnesota

CITY           SKY/WX    TMP DP  RH WIND       PRES   REMARKS
FERGUS FALLS   CLOUDY    72  55  56 W14G21    29.96S
WHEATON        PTSUNNY   73  55  53 W15       29.99R
MORRIS         SUNNY     75  55  50 W12       29.97S
ALEXANDRIA     SUNNY     73  55  53 W13       29.98R
ELBOW LAKE     FAIR      71  56  60 SW12G17   29.97S
WADENA         SUNNY     72  55  56 W15G21    29.92S
GLENWOOD       SUNNY     73  57  56 W14       29.97S
BENSON         MOSUNNY   75  54  46 NW13      29.98R
ORTONVILLE     MOSUNNY   73  54  49 W9        30.00R
MADISON        PTSUNNY   73  54  49 W13G20    30.00R
WILLMAR        FAIR      75  57  53 W10       29.98S
$$
MNZ033>034-036-042>043-049>051-058-059-241900-
   Central Minnesota

CITY           SKY/WX    TMP DP  RH WIND       PRES   REMARKS
ST CLOUD       SUNNY     79  57  46 NW14      29.91R
6HR MIN TEMP:  67; 6HR MAX TEMP:  80;

SAUK CENTRE    FAIR      74  55  51 W12       29.95S
PAYNESVILLE    MOSUNNY   76  53  43 W12       29.96R
AITKIN         SUNNY     81  46  30 W10G16    29.87S
PINE RIVER     SUNNY     75  55  50 SW8       29.92S
BRAINERD       SUNNY     78  50  37 W17       29.90R
STAPLES        SUNNY     75  52  43 W17       29.92R
LONG PRAIRIE   FAIR      73  54  49 SW10      29.95S
LITTLE FALLS   SUNNY     77  46  33 W13       29.92S
LITCHFIELD     MOSUNNY   79  57  47 W13       29.96R
BUFFALO        MOSUNNY   79  56  45 W9        29.94R
MAPLE LAKE     MOSUNNY   79  60  52 W8        29.93S
HUTCHINSON     SUNNY     76  62  62 W9        29.97R
$$
MNZ037-044-045-052-053-241900-
   East Central Minnesota

CITY           SKY/WX    TMP DP  RH WIND       PRES   REMARKS
PRINCETON      SUNNY     82  57  42 W7        29.90S
MORA           MOSUNNY   77  52  41 NW12      29.90S
CAMBRIDGE        N/A     82  63  51 W7        29.88S
RUSH CITY      MOSUNNY   78  64  61 W3        29.89S
MOOSE LAKE     SUNNY     79  54  41 W8G20     29.84S
HINCKLEY       FAIR      79  61  53 W7        29.87S
CLOQUET        MOSUNNY   79  59  50 W12G18    29.84F
MCGREGOR       SUNNY     79  50  36 W14G21    29.87S
$$
MNZ071>073-080-081-089-090-097-098-241900-
   Southwest Minnesota

CITY           SKY/WX    TMP DP  RH WIND       PRES   REMARKS
MONTEVIDEO     PTSUNNY   77  61  57 N7        30.01R
GRANITE FALLS  CLOUDY    75  60  59 W9        30.01S
CANBY          CLOUDY    74  56  52 NW8       30.02R
MARSHALL       CLOUDY    73  58  59 NW7       30.01S
REDWOOD FALLS  CLOUDY    76  59  55 W8        29.98R
OLIVIA         CLOUDY    73  59  60 W8        29.98R
PIPESTONE      PTSUNNY   72  55  56 NW8       30.05R
WINDOM         MOSUNNY   73  57  56 NW12      30.01R
WORTHINGTON    CLOUDY    73  60  63 NW12      30.03S
JACKSON        MOSUNNY   75  55  50 NW8       30.01R
TRACY          PTSUNNY   73  59  62 NW7       30.02S
SLAYTON        CLOUDY    72  57  60 NW8       30.04S
$$
MNZ065>067-074>077-082>085-091>093-241900-
   South Central Minnesota

CITY           SKY/WX    TMP DP  RH WIND       PRES   REMARKS
MANKATO        MOSUNNY   77  63  61 NW10      29.95S
NEW ULM        MOSUNNY   75  61  60 NW10      29.97R
ST JAMES       PTSUNNY   72  59  64 W9        29.99S
FAIRMONT       MOSUNNY   76  63  64 NW9       29.98S
GLENCOE        PTSUNNY   79  65  62 W9        29.95R
FARIBAULT      MOSUNNY   79  70  73 SW8       29.95R
OWATONNA       PTSUNNY   75  66  73 W10       29.95S
WASECA         CLOUDY    77  70  78 W7        29.97S
ALBERT LEA     CLOUDY    75  70  83 W6        29.95S
$$
MNZ078>079-086>088-094>096-241900-
   Southeast Minnesota

CITY           SKY/WX    TMP DP  RH WIND       PRES   REMARKS
ROCHESTER      MOSUNNY   80  71  74 W10       29.94R
6HR MIN TEMP:  70; 6HR MAX TEMP:  80;

RED WING       PTSUNNY   79  66  65 NW9       29.89S
STANTON        CLOUDY    75  68  78 W9        29.92R
DODGE CENTER   PTSUNNY   79  70  73 NW7       29.94S
WINONA         CLOUDY    77  70  78 N7        29.90R
AUSTIN         CLOUDY    77  68  73 NW8       29.94S
PRESTON        PTSUNNY   76  71  82 W5        29.93S
$$
ABBREVIATIONS USED IN REMARKS
   TC - TEMPERATURES IN CELSIUS
  WCI - WIND CHILL INDEX
   HX - HEAT INDEX
  VSB - VISIBILITY
$$




USA.gov is the U.S. government's official web portal to all federal, state and local government web resources and services.